Flag Weather past 2 weeks in Minot, North Dakota, U.S.A.

Now
33 °F

Mostly cloudy.


Feels Like: 24 °F
Forecast: 24 / 37 °F
Wind: 12 mph from Northwest

Location: Minot International Airport

Current Time: Oct 30, 2014 at 10:36:42 AM

Latest Report: Oct 30, 2014 at 9:54 AM


Visibility: 10 mi

Pressure: 30.40 "Hg

Humidity: 85%

Dew point: 29 °F

Location of MinotLocation

Historic Weather in Minot — Graph

°F

Minot temperature yesterday

Maximum temperature yesterday: 45 °F (at 3:54 PM)
Minimum temperature yesterday: 30 °F (at 7:54 AM)
Average temperature yesterday: 38 °F

Past Weeks' High & Low Weather Summary

 TemperatureHumidityPressure
High73 °F (Oct 15, 3:54 PM)93% (Oct 27, 9:54 PM)30.36 "Hg (Oct 27, 9:54 PM)
Low28 °F (Oct 30, 5:54 AM)24% (Oct 24, 2:54 PM)29.44 "Hg (Oct 26, 3:54 PM)
Average49 °F61%29.87 "Hg
* Reported Oct 15 9:54 AM — Oct 30 9:03 AM, Minot, Weather by CustomWeather, © 2014

Note: Actual official high and low records may vary slightly from our data, if they occured in-between our weather recording intervals... More about our weather records

Advertising

Minot weather history for previous 24 hours

 ConditionsComfort  
Time TempWeatherWind HumidityBarometerVisibility
9:03 AM
Oct 30
32 °FMostly cloudy.13 mph88%30.30 "Hg10 mi
8:54 AM32 °FMostly cloudy.12 mph88%30.36 "Hg10 mi
7:54 AM31 °FLow clouds.8 mph92%30.32 "Hg7 mi
6:54 AM30 °FPassing clouds.13 mph89%30.29 "Hg9 mi
5:54 AM28 °FClear.15 mph89%30.25 "Hg10 mi
4:54 AM29 °FClear.12 mph89%30.21 "Hg9 mi
3:54 AM29 °FClear.9 mph89%30.17 "Hg8 mi
2:54 AM29 °FClear.10 mph89%30.12 "Hg9 mi
1:54 AM31 °FClear.13 mph89%30.09 "Hg10 mi
12:54 AM32 °FClear.10 mph88%30.06 "Hg10 mi
11:54 PM
Oct 29
35 °FClear.10 mph82%30.03 "Hg10 mi
10:54 PM38 °FClear.12 mph83%29.99 "Hg10 mi
9:54 PM39 °FClear.10 mph82%29.97 "Hg10 mi
8:54 PM39 °FClear.7 mph82%29.95 "Hg10 mi
7:54 PM40 °FClear.7 mph77%29.94 "Hg10 mi
6:54 PM43 °FSunny.8 mph71%29.92 "Hg10 mi
5:54 PM45 °FPartly sunny.7 mph63%29.90 "Hg10 mi
4:54 PM45 °FMostly cloudy.6 mph58%29.91 "Hg10 mi
3:54 PM45 °FMostly cloudy.15 mph58%29.89 "Hg10 mi
2:54 PM44 °FSunny.13 mph58%29.92 "Hg10 mi
1:54 PM43 °FOvercast.17 mph58%29.94 "Hg10 mi
12:54 PM43 °FOvercast.12 mph60%29.96 "Hg10 mi
11:54 AM40 °FOvercast.13 mph65%29.99 "Hg10 mi
10:54 AM39 °FOvercast.10 mph67%30.01 "Hg10 mi
Weather by CustomWeather, © 2014

See weather overviewHow to use our weather pages